Location: Feydey
(46.3431°N, 7.0106°E)
Time: 19:35:34
(UTC+00:00)

Cosmos 1328 - Pass Details

Date: 23 October 2021
Orbit: 529 x 552 km, 82.5° (Epoch: 03 December)

Event Time Altitude Azimuth Distance (km) Brightness Sun altitude
Rises 19:02:41 0° 328° (NNW) 2,736 8.0 -26.7°
Reaches altitude 10° 19:06:38 10° 290° (WNW) 1,836 7.5 -27.4°
Maximum altitude 19:07:29 11° 278° (W) 1,797 7.4 -27.5°
Drops below altitude 10° 19:08:20 10° 265° (W) 1,833 7.4 -27.7°
Sets 19:12:15 0° 226° (SW) 2,718 7.8 -28.3°
